Weather Roundup
Issued by NWS

Home | Current Version | Previous Version | Text Only | Print | Product List | Glossary On
Versions: 1 2 3 4 5 6 7 8 9 10 11 12 13 14 15 16 17 18 19 20 21 22 23 24 25 26 27 28 29 30 31 32 33 34 35 36 37 38 39 40 41 42 43 44 45 46 47 48 49 50
000
NZUS93 KARX 031510
HRRWXR

CURRENT HOURLY OBSERVATIONS ACROSS
MUCH OF THE UPPER MISSISSIPPI VALLEY
NATIONAL WEATHER SERVICE LA CROSSE WI
1000 AM CDT SUN MAY 03 2015


...SOUTHEAST MINNESOTA...


CITY           SKY/WX    TMP DP  RH WIND       PRES   REMARKS
ROCHESTER      CLOUDY    65  53  65 S10       29.83R
ROCHESTER/MAYO FAIR      62  53  71 SE5       29.82F
WINONA         PTSUNNY   66  52  59 SE3       29.82S
AUSTIN         PTSUNNY   66  54  63 S12       29.81S
ALBERT LEA     MOSUNNY   66  54  63 S8        29.80R
DODGE CENTER   CLOUDY    66  55  68 SW8       29.81S
PRESTON        PTSUNNY   63  52  67 S10       29.84R
OWATONNA       PTSUNNY   68  52  56 SW7       29.80S
FARIBAULT      PTSUNNY   63  54  72 CALM      29.80F
$$

...ELSEWHERE IN MINNESOTA...


CITY           SKY/WX    TMP DP  RH WIND       PRES   REMARKS
MINNEAPOLIS    PTSUNNY   64  52  64 S13       29.77F
INTNL FALLS    MOSUNNY   62  46  55 W9        29.72S
DULUTH         SUNNY     70  51  51 W16G22    29.74S
RED WING       PTSUNNY   66  52  59 S7        29.80R
REDWOOD FALLS  SUNNY     68  54  60 SE7       29.76S
MANKATO        MOSUNNY   66  52  59 S8        29.78F
WORTHINGTON    MOSUNNY   70  52  52 S9        29.78R
FAIRMONT       SUNNY     68  52  56 S8        29.79R
$$

...SOUTHWEST WISCONSIN...


CITY           SKY/WX    TMP DP  RH WIND       PRES   REMARKS
LA CROSSE      CLOUDY    69  51  52 S13       29.82F
PRAIRIE DU CHI CLOUDY    68  49  51 S15       29.84S
BOSCOBEL       CLOUDY    68  51  54 S10       29.86S
LONE ROCK      CLOUDY    67  51  56 S7        29.87F
PLATTEVILLE    CLOUDY    65  53  63 S20       29.87F
FORT MC COY    CLOUDY    68  48  49 S9        29.85F
CAMP DOUGLAS   CLOUDY    68  52  56 S8        29.84F
VIROQUA        FAIR      66  51  57 S10       29.86S
WIS DELLS      NOT AVBL
$$

...ELSEWHERE IN WISCONSIN...


CITY           SKY/WX    TMP DP  RH WIND       PRES   REMARKS
MILWAUKEE      PTSUNNY   72  45  37 S15       29.93F
MADISON        CLOUDY    65  49  56 S13       29.90S
GREEN BAY      PTSUNNY   69  49  48 SW15      29.88F
EAU CLAIRE     MOSUNNY   68  51  54 S10       29.79F
BLACK RVR FLS  FAIR      68  48  49 SW7       29.83S
MEDFORD        PTSUNNY   63  50  61 S10       29.83F
WAUSAU         PTSUNNY   66  50  56 SW10      29.84F
WIS RAPIDS     PTSUNNY   68  47  46 S12       29.87S
MARSHFIELD     PTSUNNY   68  50  52 SW12      29.85F
RICE LAKE      PTSUNNY   66  51  57 S7        29.81R
$$

...NORTHEAST IOWA...


CITY           SKY/WX    TMP DP  RH WIND       PRES   REMARKS
DECORAH        CLOUDY    66  52  59 S8G21     29.83S
MASON CITY     MOSUNNY   68  55  63 S10       29.83R
CHARLES CITY   PTSUNNY   64  57  77 S14       29.83S
OELWEIN        CLOUDY    66  54  63 S17       29.86R
$$

...ELSEWHERE IN IOWA...


CITY           SKY/WX    TMP DP  RH WIND       PRES   REMARKS
DES MOINES     PTSUNNY   71  57  61 S15       29.81R
IOWA CITY      CLOUDY    61  54  77 CALM      29.89R
FORT DODGE     MOSUNNY   70  57  64 S14       29.81S
$$

...NORTHERN ILLINOIS...


CITY           SKY/WX    TMP DP  RH WIND       PRES   REMARKS
CHICAGO-OHARE  PTSUNNY   69  46  43 SW12      29.97S
CHICAGO-MIDWAY CLOUDY    71  46  40 S14       29.98S
MOLINE         PTSUNNY   67  53  61 S12       29.91F
ROCKFORD       CLOUDY    72  49  44 S16G23    29.95F
PEORIA         MOSUNNY   72  49  44 S13       29.98F
$$

NOTE: "FAIR" INDICATES FEW OR NO CLOUDS BELOW 12,000 FEET WITH NO
SIGNIFICANT WEATHER AND/OR OBSTRUCTIONS TO VISIBILITY. WIND
SPEEDS ARE IN MILES-PER-HOUR.



USA.gov is the U.S. government's official web portal to all federal, state and local government web resources and services.